Hazlehurst, GA

10:05 AM EDT on August 27, 2016 (GMT -0400)
Hazlehurst

Weather History for KAZE - September, 2012

Change the Weather History Date:

Friday, September 7, 2012

  Actual Average Record
Temperature  
Mean Temperature 82 °F -  
Max Temperature 91 °F 67 °F 88 °F (2013)
Min Temperature 74 °F 64 °F 69 °F (2013)
Cooling Degree Days 18    
Growing Degree Days 32 (Base 50)    
Moisture  
Dew Point 76 °F    
Average Humidity 77    
Maximum Humidity 100    
Minimum Humidity 55    
Precipitation  
Precipitation 0.00 in - - ()
Sea Level Pressure  
Sea Level Pressure 29.93 in    
Wind  
Wind Speed 2 mph ()    
Max Wind Speed 7 mph    
Max Gust Speed -    
Visibility 9.9 miles    
Events Rain    
Averages and records for this station are not official NWS values.
T = Trace of Precipitation, MM = Missing Value Source: Averaged Metar Reports

Daily Weather History Graph

Daily Weather History Graph

Search for Another Location

Airport or City:

Trip Planner

Search our weather history database for the weather conditions in past years. The results will help you decide how hot, cold, wet, or windy it might be!

Date:

Astronomy

Sep. 07, 2012 Rise Set
Actual Time 7:09 AM EDT 7:46 PM EDT
Civil Twilight 6:45 AM EDT 8:10 PM EDT
Nautical Twilight 6:16 AM EDT 8:39 PM EDT
Astronomical Twilight 5:46 AM EDT 9:09 PM EDT
Moon No Moon Rise 1:35 PM EDT (9/7)
Length of Visible Light 13h 25m
Length of Day
12h 36m
Waning Gibbous, 58% of the Moon is Illuminated
Sep 7
Waning Gibbous
Sep 8
Last Quarter
Sep 15
New
Sep 22
First Quarter
Sep 29
Full

Hourly Weather History & Observations

Time (EDT) Temp. Heat Index Dew Point Humidity Pressure Visibility Wind Dir Wind Speed Gust Speed Precip Events Conditions
12:15 AM 77.4 °F - 77.7 °F 100% 29.96 in 10.0 mi Calm Calm - N/A   Clear
12:35 AM 77.0 °F - - N/A% 29.96 in 10.0 mi Calm Calm - N/A   Scattered Clouds
12:55 AM 76.6 °F - - N/A% 29.95 in 10.0 mi South 4.6 mph - N/A   Clear
1:15 AM 76.5 °F - - N/A% 29.95 in 10.0 mi South 4.6 mph - N/A   Clear
1:35 AM 76.5 °F - - N/A% 29.95 in 10.0 mi South 4.6 mph - N/A   Clear
1:55 AM 76.5 °F - - N/A% 29.95 in 10.0 mi South 3.5 mph - N/A   Clear
2:15 AM 76.3 °F - - N/A% 29.95 in 10.0 mi Calm Calm - N/A   Clear
2:35 AM 76.1 °F - - N/A% 29.94 in 10.0 mi Calm Calm - N/A   Clear
2:55 AM 76.1 °F - - N/A% 29.94 in 10.0 mi Calm Calm - N/A   Clear
3:15 AM 75.9 °F - - N/A% 29.93 in 10.0 mi Calm Calm - N/A   Clear
3:35 AM 75.7 °F - - N/A% 29.93 in 10.0 mi SW 3.5 mph - N/A   Clear
3:55 AM 75.6 °F - - N/A% 29.93 in 10.0 mi Calm Calm - N/A   Clear
4:15 AM 75.4 °F - - N/A% 29.93 in 10.0 mi Calm Calm - N/A   Clear
4:35 AM 75.6 °F - - N/A% 29.92 in 10.0 mi WSW 3.5 mph - N/A   Clear
4:55 AM 75.7 °F - - N/A% 29.92 in 10.0 mi WSW 3.5 mph - N/A   Clear
5:15 AM 76.1 °F - - N/A% 29.93 in 10.0 mi Calm Calm - N/A   Clear
5:35 AM 75.6 °F - - N/A% 29.93 in 10.0 mi Calm Calm - N/A   Scattered Clouds
5:55 AM 75.0 °F - - N/A% 29.93 in 7.0 mi Calm Calm - N/A   Scattered Clouds
6:15 AM 74.5 °F - - N/A% 29.93 in 7.0 mi Calm Calm - N/A   Scattered Clouds
6:35 AM 74.5 °F - - N/A% 29.94 in 10.0 mi Calm Calm - N/A   Scattered Clouds
6:55 AM 74.5 °F - - N/A% 29.94 in 10.0 mi Calm Calm - N/A   Scattered Clouds
7:15 AM 74.5 °F - - N/A% 29.95 in 7.0 mi Calm Calm - N/A   Clear
7:35 AM 74.7 °F - - N/A% 29.96 in 10.0 mi Calm Calm - N/A   Mostly Cloudy
7:55 AM 75.4 °F - - N/A% 29.96 in 10.0 mi Calm Calm - N/A   Scattered Clouds
8:15 AM 76.3 °F - - N/A% 29.96 in 10.0 mi Calm Calm - N/A   Clear
8:35 AM 77.5 °F - - N/A% 29.96 in 10.0 mi Calm Calm - N/A   Clear
8:55 AM 78.8 °F - 79.0 °F 100% 29.97 in 10.0 mi West 4.6 mph - N/A   Clear
9:15 AM 80.2 °F 87.3 °F 79.2 °F 96% 29.97 in 10.0 mi West 4.6 mph - N/A   Clear
9:35 AM 81.9 °F 91.1 °F 78.8 °F 90% 29.97 in 10.0 mi West 3.5 mph - N/A   Clear
9:55 AM 83.1 °F 93.6 °F 78.6 °F 86% 29.98 in 10.0 mi NNW 4.6 mph - N/A   Clear
10:15 AM 84.4 °F 95.9 °F 78.3 °F 82% 29.98 in 10.0 mi Calm Calm - N/A   Clear
10:35 AM 85.5 °F 97.2 °F 78.1 °F 78% 29.98 in 10.0 mi WNW 3.5 mph - N/A   Clear
10:55 AM 86.7 °F 98.8 °F 77.5 °F 74% 29.98 in 10.0 mi Calm Calm - N/A   Clear
11:15 AM 87.6 °F 99.2 °F 76.6 °F 70% 29.98 in 10.0 mi SW 3.5 mph - N/A   Clear
11:35 AM 87.8 °F 98.6 °F 76.1 °F 68% 29.97 in 10.0 mi Calm Calm - N/A   Clear
11:55 AM 88.9 °F 99.2 °F 75.4 °F 64% 29.97 in 10.0 mi Calm Calm - N/A   Clear
12:15 PM 89.4 °F 98.9 °F 74.3 °F 61% 29.96 in 10.0 mi Calm Calm - N/A   Scattered Clouds
12:35 PM 89.1 °F 98.0 °F 73.9 °F 61% 29.96 in 10.0 mi West 3.5 mph - N/A   Clear
12:55 PM 89.6 °F 98.2 °F 73.8 °F 59% 29.95 in 10.0 mi SW 3.5 mph - N/A   Mostly Cloudy
1:15 PM 90.1 °F 99.4 °F 74.1 °F 59% 29.94 in 10.0 mi West 4.6 mph - N/A   Mostly Cloudy
1:35 PM 91.0 °F 99.8 °F 73.6 °F 56% 29.93 in 10.0 mi WSW 3.5 mph - N/A   Scattered Clouds
1:55 PM 90.9 °F 99.4 °F 73.2 °F 56% 29.93 in 10.0 mi Calm Calm - N/A   Scattered Clouds
2:15 PM 90.7 °F 99.0 °F 73.2 °F 56% 29.92 in 10.0 mi Calm Calm - N/A   Scattered Clouds
2:35 PM 91.8 °F 100.9 °F 73.8 °F 55% 29.91 in 10.0 mi SW 5.8 mph - N/A   Scattered Clouds
2:55 PM 91.4 °F 101.3 °F 74.3 °F 57% 29.90 in 10.0 mi Calm Calm - N/A   Clear
3:15 PM 91.9 °F 101.9 °F 74.3 °F 56% 29.89 in 10.0 mi SSW 3.5 mph - N/A   Clear
3:35 PM 91.2 °F 100.2 °F 73.4 °F 56% 29.88 in 10.0 mi Calm Calm - N/A   Mostly Cloudy
3:55 PM 90.5 °F 99.2 °F 73.6 °F 57% 29.88 in 10.0 mi Calm Calm - N/A   Scattered Clouds
4:15 PM 91.0 °F 101.6 °F 74.8 °F 59% 29.88 in 10.0 mi NNW 5.8 mph - N/A   Scattered Clouds
4:35 PM 88.5 °F 97.8 °F 74.7 °F 63% 29.88 in 10.0 mi NNW 6.9 mph - N/A   Mostly Cloudy
4:55 PM 84.0 °F 91.5 °F 74.5 °F 73% 29.88 in 10.0 mi Calm Calm - N/A   Overcast
5:15 PM 83.3 °F 90.8 °F 75.2 °F 76% 29.87 in 10.0 mi NW 4.6 mph - N/A   Mostly Cloudy
5:55 PM 82.9 °F 90.8 °F 75.9 °F 79% 29.88 in 10.0 mi Calm Calm - N/A   Clear
6:15 PM 82.4 °F 90.9 °F 77.0 °F 84% 29.88 in 10.0 mi Calm Calm - N/A   Clear
6:35 PM 81.9 °F 90.8 °F 78.3 °F 89% 29.88 in 10.0 mi Calm Calm - N/A   Scattered Clouds
6:55 PM 81.5 °F 89.5 °F 77.5 °F 88% 29.90 in 10.0 mi West 4.6 mph - N/A   Mostly Cloudy
7:15 PM 80.6 °F 87.5 °F 77.7 °F 91% 29.89 in 10.0 mi WNW 3.5 mph - N/A   Mostly Cloudy
7:35 PM 79.9 °F - 77.0 °F 91% 29.89 in 10.0 mi Calm Calm - N/A   Scattered Clouds
7:55 PM 79.0 °F - 77.0 °F 94% 29.88 in 10.0 mi Calm Calm - N/A   Scattered Clouds
8:15 PM 78.4 °F - 77.0 °F 95% 29.89 in 10.0 mi Calm Calm - N/A   Clear
8:35 PM 78.1 °F - 77.0 °F 96% 29.89 in 10.0 mi ESE 4.6 mph - N/A   Clear
8:55 PM 77.9 °F - 77.7 °F 99% 29.88 in 10.0 mi SE 5.8 mph - N/A   Scattered Clouds
9:15 PM 78.1 °F - 77.9 °F 99% 29.88 in 10.0 mi SE 3.5 mph - N/A   Scattered Clouds
9:35 PM 78.3 °F - 77.7 °F 98% 29.88 in 10.0 mi Calm Calm - N/A   Scattered Clouds
9:55 PM 78.8 °F - 77.0 °F 94% 29.88 in 10.0 mi South 4.6 mph - N/A   Mostly Cloudy
10:15 PM 79.3 °F - 77.4 °F 94% 29.88 in 10.0 mi SSW 6.9 mph - N/A Rain Light Rain